When you browse on this site, cookies collect data to enhance your experience and personalize the content and advertising you see.
Visit our Privacy Policy to learn more. By continuing to use the site, you agree to this use of cookies and data.
  • In Romania
  • List of Countries
  • For 7 days
  • Water Temperature
  • Weather Map
  • Weather Widgets
  • user-avatar
    Login

    Hourly Weather Ålesund

    Today, 1 June, Monday

    Time Temperature Precipitation Wind Pressure Humidity
    00:00 +14°C° 0 mm 1 mps 769 mmHg 78%
    01:00 +14°C° 0 mm 1 mps 768 mmHg 78%
    02:00 +14°C° 0 mm 1 mps 768 mmHg 77%
    03:00 +14°C° 0 mm 1 mps 767 mmHg 76%
    04:00 +15°C° 0 mm 1 mps 767 mmHg 71%
    05:00 +16°C° 0 mm 1 mps 767 mmHg 67%
    06:00 +19°C° 0 mm 1 mps 768 mmHg 62%
    07:00 +20°C° 0 mm 1 mps 768 mmHg 59%
    08:00 +21°C° 0 mm 1 mps 767 mmHg 56%
    09:00 +22°C° 0 mm 1 mps 767 mmHg 53%
    10:00 +22°C° 0 mm 1 mps 767 mmHg 52%
    11:00 +21°C° 0 mm 2 mps 767 mmHg 51%
    12:00 +23°C° 0 mm 2 mps 767 mmHg 50%
    13:00 +21°C° 0 mm 2 mps 767 mmHg 51%
    14:00 +21°C° 0 mm 2 mps 766 mmHg 52%
    15:00 +20°C° 0 mm 2 mps 766 mmHg 52%
    16:00 +20°C° 0 mm 2 mps 766 mmHg 55%
    17:00 +19°C° 0 mm 2 mps 766 mmHg 57%
    18:00 +18°C° 0 mm 2 mps 765 mmHg 59%
    19:00 +17°C° 0 mm 2 mps 765 mmHg 64%
    20:00 +16°C° 0 mm 2 mps 765 mmHg 69%
    21:00 +15°C° 0 mm 2 mps 765 mmHg 73%
    22:00 +14°C° 0 mm 2 mps 765 mmHg 75%
    23:00 +13°C° 0 mm 2 mps 764 mmHg 77%

    Tomorrow, 2 June, Tuesday

    Time Temperature Precipitation Wind Pressure Humidity
    00:00 +13°C° 0 mm 2 mps 764 mmHg 79%
    01:00 +13°C° 0 mm 2 mps 764 mmHg 78%
    02:00 +13°C° 0 mm 2 mps 763 mmHg 77%
    03:00 +13°C° 0 mm 2 mps 763 mmHg 77%
    04:00 +14°C° 0 mm 2 mps 763 mmHg 71%
    05:00 +15°C° 0 mm 2 mps 762 mmHg 66%
    06:00 +15°C° 0 mm 2 mps 762 mmHg 61%
    07:00 +16°C° 0 mm 2 mps 762 mmHg 58%
    08:00 +17°C° 0 mm 2 mps 762 mmHg 55%
    09:00 +18°C° 0 mm 3 mps 761 mmHg 53%
    10:00 +18°C° 0 mm 3 mps 761 mmHg 56%
    11:00 +18°C° 0 mm 3 mps 761 mmHg 60%
    12:00 +18°C° 0 mm 3 mps 761 mmHg 63%
    13:00 +17°C° 0 mm 3 mps 760 mmHg 69%
    14:00 +16°C° 0 mm 3 mps 760 mmHg 75%
    15:00 +14°C° 0 mm 4 mps 760 mmHg 80%
    16:00 +14°C° 0 mm 4 mps 760 mmHg 83%
    17:00 +13°C° 0 mm 5 mps 760 mmHg 85%
    18:00 +11°C° 0 mm 6 mps 760 mmHg 87%
    19:00 +11°C° 0 mm 6 mps 759 mmHg 89%
    20:00 +10°C° 0 mm 6 mps 759 mmHg 91%
    21:00 +10°C° 0 mm 6 mps 759 mmHg 93%
    22:00 +10°C° 0 mm 6 mps 759 mmHg 93%
    23:00 +10°C° 0 mm 7 mps 759 mmHg 93%

    Day after tomorrow, 3 June, Wednesday

    Time Temperature Precipitation Wind Pressure Humidity
    00:00 +9°C° 0 mm 7 mps 758 mmHg 93%
    01:00 +9°C° 0 mm 7 mps 758 mmHg 93%
    02:00 +9°C° 0 mm 7 mps 757 mmHg 92%
    03:00 +9°C° 0 mm 7 mps 757 mmHg 92%
    04:00 +9°C° 0 mm 7 mps 757 mmHg 91%
    05:00 +9°C° 0 mm 8 mps 756 mmHg 91%
    06:00 +9°C° 0 mm 8 mps 756 mmHg 90%
    07:00 +10°C° 0 mm 8 mps 756 mmHg 88%
    08:00 +10°C° 0 mm 8 mps 755 mmHg 87%
    09:00 +10°C° 0 mm 8 mps 755 mmHg 85%
    10:00 +10°C° 0 mm 7 mps 755 mmHg 84%
    11:00 +10°C° 0 mm 7 mps 754 mmHg 83%
    12:00 +11°C° 0 mm 7 mps 754 mmHg 82%
    13:00 +10°C° 0.1 mm 7 mps 753 mmHg 84%
    14:00 +10°C° 0.1 mm 7 mps 753 mmHg 85%
    15:00 +10°C° 0.1 mm 7 mps 752 mmHg 86%
    16:00 +10°C° 0.3 mm 7 mps 752 mmHg 89%
    17:00 +9°C° 0.3 mm 6 mps 752 mmHg 91%
    18:00 +9°C° 0.3 mm 6 mps 751 mmHg 93%
    19:00 +9°C° 0.8 mm 6 mps 751 mmHg 95%
    20:00 +8°C° 0.8 mm 6 mps 750 mmHg 96%
    21:00 +8°C° 0.8 mm 6 mps 750 mmHg 97%
    22:00 +8°C° 0.4 mm 6 mps 750 mmHg 97%
    23:00 +8°C° 0.4 mm 6 mps 749 mmHg 97%

    4 June, Thursday

    Time Temperature Precipitation Wind Pressure Humidity
    00:00 +8°C° 0.4 mm 6 mps 749 mmHg 97%
    01:00 +8°C° 0.4 mm 6 mps 748 mmHg 97%
    02:00 +8°C° 0.4 mm 6 mps 748 mmHg 97%
    03:00 +8°C° 0.4 mm 5 mps 747 mmHg 97%
    04:00 +8°C° 0.9 mm 5 mps 747 mmHg 97%
    05:00 +8°C° 0.9 mm 5 mps 747 mmHg 97%
    06:00 +8°C° 0.9 mm 5 mps 746 mmHg 97%
    07:00 +10°C° 0.6 mm 4 mps 746 mmHg 96%
    08:00 +10°C° 0.6 mm 4 mps 746 mmHg 96%
    09:00 +10°C° 0.6 mm 3 mps 746 mmHg 95%
    10:00 +11°C° 0.3 mm 3 mps 746 mmHg 92%
    11:00 +11°C° 0.3 mm 3 mps 746 mmHg 90%
    12:00 +12°C° 0.3 mm 3 mps 746 mmHg 87%
    13:00 +12°C° 0.1 mm 3 mps 746 mmHg 88%
    14:00 +12°C° 0.1 mm 3 mps 746 mmHg 88%
    15:00 +12°C° 0.1 mm 3 mps 746 mmHg 89%
    16:00 +12°C° 0.7 mm 3 mps 746 mmHg 91%
    17:00 +12°C° 0.7 mm 2 mps 746 mmHg 94%
    18:00 +12°C° 0.7 mm 2 mps 747 mmHg 97%
    19:00 +12°C° 1 mm 2 mps 746 mmHg 97%
    20:00 +10°C° 1 mm 2 mps 746 mmHg 97%
    21:00 +10°C° 1 mm 2 mps 746 mmHg 98%
    22:00 +10°C° 1.6 mm 2 mps 746 mmHg 98%
    23:00 +10°C° 1.6 mm 2 mps 746 mmHg 98%

    5 June, Friday

    Time Temperature Precipitation Wind Pressure Humidity
    00:00 +10°C° 1.6 mm 3 mps 745 mmHg 98%
    01:00 +10°C° 0.4 mm 3 mps 745 mmHg 98%
    02:00 +10°C° 0.4 mm 3 mps 745 mmHg 97%
    03:00 +10°C° 0.4 mm 3 mps 744 mmHg 97%
    04:00 +10°C° 0.1 mm 3 mps 744 mmHg 95%
    05:00 +11°C° 0.1 mm 3 mps 744 mmHg 93%
    06:00 +12°C° 0.1 mm 2 mps 743 mmHg 90%
    07:00 +12°C° 0 mm 3 mps 743 mmHg 84%
    08:00 +14°C° 0 mm 3 mps 743 mmHg 77%
    09:00 +16°C° 0 mm 3 mps 742 mmHg 71%
    10:00 +16°C° 0.1 mm 3 mps 742 mmHg 69%
    11:00 +15°C° 0.1 mm 4 mps 742 mmHg 68%
    12:00 +17°C° 0.1 mm 4 mps 741 mmHg 66%
    13:00 +15°C° 0.1 mm 4 mps 741 mmHg 69%
    14:00 +15°C° 0.1 mm 4 mps 740 mmHg 71%
    15:00 +16°C° 0.1 mm 3 mps 740 mmHg 74%
    16:00 +14°C° 0.1 mm 3 mps 740 mmHg 76%
    17:00 +14°C° 0.1 mm 3 mps 739 mmHg 78%
    18:00 +14°C° 0.1 mm 3 mps 739 mmHg 81%
    19:00 +13°C° 0 mm 3 mps 738 mmHg 83%
    20:00 +12°C° 0 mm 3 mps 738 mmHg 85%
    21:00 +12°C° 0 mm 3 mps 737 mmHg 87%
    22:00 +13°C° 0 mm 2 mps 737 mmHg 86%
    23:00 +13°C° 0 mm 2 mps 736 mmHg 85%

    6 June, Saturday

    Time Temperature Precipitation Wind Pressure Humidity
    00:00 +12°C° 0 mm 2 mps 735 mmHg 83%
    01:00 +12°C° 0 mm 2 mps 735 mmHg 83%
    02:00 +11°C° 0 mm 3 mps 734 mmHg 82%
    03:00 +12°C° 0 mm 3 mps 734 mmHg 82%
    04:00 +13°C° 0 mm 3 mps 734 mmHg 76%
    05:00 +14°C° 0 mm 3 mps 734 mmHg 70%
    06:00 +16°C° 0 mm 3 mps 733 mmHg 64%
    07:00 +17°C° 0 mm 3 mps 734 mmHg 56%
    08:00 +18°C° 0 mm 3 mps 734 mmHg 48%
    09:00 +19°C° 0 mm 3 mps 734 mmHg 40%
    10:00 +18°C° 0.3 mm 3 mps 734 mmHg 47%
    11:00 +17°C° 0.3 mm 3 mps 734 mmHg 54%
    12:00 +15°C° 0.3 mm 4 mps 735 mmHg 61%
    13:00 +14°C° 0.4 mm 4 mps 735 mmHg 66%
    14:00 +14°C° 0.4 mm 4 mps 734 mmHg 72%
    15:00 +13°C° 0.4 mm 4 mps 734 mmHg 77%
    16:00 +13°C° 0.1 mm 4 mps 734 mmHg 80%
    17:00 +12°C° 0.1 mm 4 mps 735 mmHg 83%
    18:00 +11°C° 0.1 mm 4 mps 735 mmHg 85%
    19:00 +11°C° 0.1 mm 3 mps 735 mmHg 87%
    20:00 +11°C° 0.1 mm 3 mps 735 mmHg 89%
    21:00 +10°C° 0.1 mm 3 mps 735 mmHg 91%
    22:00 +10°C° 0.7 mm 2 mps 735 mmHg 92%
    23:00 +10°C° 0.7 mm 2 mps 735 mmHg 93%
    Show more